TALLINN current weather conditions

sailwx.info

Wind from 210 at 5 knots

Air temperature -0.0° C
Visibility: greater than 5.4 NM
Dewpoint -0.0° C

Last reported at 2015-Mar-04 22:20 UTC.
Time now 2015-Mar-05 00:18 UTC

Location: N 59°24' E 024°49'.
View on Google Maps.

See reports from other nearby stations

  
Tides and Currents Weather Stations Pressure Air Temp Water Temp Dewpoint Dewpoint Depression Visibility Wind Speed Wind Dir Waves Ship Positions
date/time (UTC)wind fromknots sea level pressurealtimeterstation pressurevisibilityair tempwater tempwave heightnotes
2015-Mar-04 23:20 230 4 5.4-0.0 Light snow showers.
2015-Mar-04 22:50 230 5 4.3-0.0 Light snow showers.
2015-Mar-04 22:20 210 5 5.4-0.0
2015-Mar-04 21:50 200 6 5.4-0.0
2015-Mar-04 21:20 200 5 5.4-0.0
2015-Mar-04 20:50 210 5 5.4-0.0
2015-Mar-04 20:20 200 6 5.4-0.0
2015-Mar-04 19:50 210 6 5.4-0.0
2015-Mar-04 19:20 210 6 2.7-0.0 Snow showers.
2015-Mar-04 18:50 220 5 5.4-0.0 Light snow showers.
2015-Mar-04 18:20 200 6 5.4 1.0
2015-Mar-04 17:50 200 6 5.4 1.0
2015-Mar-04 17:20 200 6 5.4 1.0
2015-Mar-04 16:50 220 6 5.4 2.0
2015-Mar-04 16:20 210 5 5.4 2.0 Light rain showers.
2015-Mar-04 15:50 220 6 5.4 3.0 Showers in the vicinity.
2015-Mar-04 15:20 220 6 5.4 3.0 Showers in the vicinity.
2015-Mar-04 14:50 220 5 5.4 3.0 Showers in the vicinity.
2015-Mar-04 14:20 230 8 5.4 3.0
2015-Mar-04 13:50 260 13 5.4 3.0 Showers in the vicinity.
2015-Mar-04 13:20 240 9 5.4 4.0 Showers in the vicinity.
2015-Mar-04 12:50 240 13 4.3 3.0 Light snow showers.
2015-Mar-04 12:20 230 13 5.4 3.0
2015-Mar-04 11:50 230 12 5.4 3.0
2015-Mar-04 11:20 230 12 5.4 3.0
2015-Mar-04 10:50 230 11 5.4 2.0
2015-Mar-04 10:20 230 11 4.9 3.0 Light rain.
2015-Mar-04 09:50 230 11 5.4 3.0
2015-Mar-04 09:20 230 12 5.4 2.0 Light rain.
2015-Mar-04 08:50 230 10 4.9 2.0 Light rain.
2015-Mar-04 08:20 230 10 3.8 2.0 Light rain showers.
2015-Mar-04 07:50 230 10 5.4 2.0
2015-Mar-04 07:20 230 9 3.2 1.0 Snow rain.
2015-Mar-04 06:50 230 10 3.8 1.0 Light snow rain.
2015-Mar-04 06:20 230 11 4.3 1.0 Light rain snow.
2015-Mar-04 05:50 220 10 4.9 1.0 Light rain.
2015-Mar-04 05:20 220 10 3.2 1.0 Light snow.
2015-Mar-04 04:50 220 10 2.7 1.0 Snow.
2015-Mar-04 04:20 220 11 2.5 1.0 Snow.
2015-Mar-04 03:50 220 10 1.5 1.0 Snow.
2015-Mar-04 03:20 220 11 2.2 1.0 Snow.
2015-Mar-04 02:50 220 10 3.2 1.0 Light snow rain.
2015-Mar-04 02:20 220 10 4.3 1.0 Light drizzle.
2015-Mar-04 01:50 220 10 5.4 1.0 Light drizzle.
2015-Mar-04 01:20 220 10 5.4 1.0 Light rain.
2015-Mar-04 00:50 220 10 5.4 1.0 Light rain.
2015-Mar-04 00:20 210 10 5.4 1.0 Light rain.
2015-Mar-03 23:50 220 10 5.4 1.0 Light rain.
2015-Mar-03 23:20 210 9 5.4 1.0 Light rain snow.
2015-Mar-03 22:50 220 9 4.3 1.0 Light rain.
2015-Mar-03 22:20 210 9 4.3 1.0 Light rain snow.
2015-Mar-03 21:50 210 9 5.4 1.0 Light rain.
2015-Mar-03 21:20 190 7 5.4 1.0 Light snow.
2015-Mar-03 20:50 180 7 5.4 1.0 Light snow.
2015-Mar-03 20:20 170 7 3.2 1.0 Light snow.
2015-Mar-03 19:50 170 7 4.3 1.0 Light snow.
2015-Mar-03 19:20 170 7 4.3 1.0 Light snow.
2015-Mar-03 18:50 170 7 2.4 1.0 Snow.
2015-Mar-03 18:20 160 8 4.9 1.0 Light snow.
2015-Mar-03 17:50 160 8 5.4 1.0 Light snow.
2015-Mar-03 17:20 170 9 5.4 1.0 Light snow.
2015-Mar-03 16:50 160 10 5.4 2.0 Light rain.
2015-Mar-03 16:20 140 8 5.4 2.0
2015-Mar-03 15:50 150 7 5.4 2.0
2015-Mar-03 15:20 160 9 4.3 2.0 Snow showers.
2015-Mar-03 14:50 130 9 5.4 3.0 Light rain.
2015-Mar-03 14:20 140 9 5.4 3.0
2015-Mar-03 13:50 130 8 5.4 3.0 Light rain showers.
2015-Mar-03 13:20 130 9 5.4 3.0
2015-Mar-03 12:50 120 11 4.9 3.0 Light rain showers.
2015-Mar-03 12:20 100 11 5.4 3.0 Light rain showers.
2015-Mar-03 11:50 110 15 5.4 3.0 Light rain showers.
2015-Mar-03 11:20 100 14 5.4 4.0 Light rain.
2015-Mar-03 10:50 100 15 5.4 4.0
2015-Mar-03 10:20 110 13 5.4 3.0
2015-Mar-03 09:50 110 12 5.4 3.0
2015-Mar-03 09:20 110 12 5.4 2.0
2015-Mar-03 08:50 120 13 5.4 2.0 Light rain.
2015-Mar-03 08:20 110 11 5.4 3.0 Light rain.
2015-Mar-03 07:50 110 13 5.4 3.0 Light rain.
2015-Mar-03 07:20 100 12 5.4 3.0 Light rain.
2015-Mar-03 06:50 100 12 4.3 3.0 Light rain.
2015-Mar-03 06:20 100 11 4.3 3.0 Light rain.
2015-Mar-03 05:50 100 11 4.3 3.0 Light drizzle rain.
2015-Mar-03 05:20 090 9 3.2 2.0
2015-Mar-03 04:50 110 9 2.7 2.0 Light rain.
2015-Mar-03 04:20 120 9 2.7 2.0
2015-Mar-03 03:50 110 7 2.7 2.0
2015-Mar-03 03:20 120 8 3.8 2.0
2015-Mar-03 02:50 120 8 2.5 2.0 Mist.
2015-Mar-03 02:20 120 8 1.5 2.0 Mist.
2015-Mar-03 01:50 100 6 2.7 2.0
2015-Mar-03 01:20 120 7 3.2 2.0
2015-Mar-03 00:50 120 6 3.2 2.0
2015-Mar-03 00:20 140 6 3.2 2.0